SCP
0 0 0 0 0 0 -0 -0 -0 -0 -0 -0 -0 -0 0 -0 -0 0 0 -0 -0 -0 -0 -0 -0 -0 -0 -0 -0 0 0 0 0 0 -0 -0 0 -0 0 0 0 0 0
0 0 0 0 0 0 0 0 0 0 0 -0 -0 -0 -0 0 0 0 0 0 -0 -0 -0 -0 -0 -0 -0 -0 -0 -0 0 0 0 0 0 0 0 -0 0 0 0 0 0
0 0 0 0 0 0 0 0 0 -0 -0 -0 -0 -0 -0 0 0 -0 0 0 -0 -0 -0 -0 -0 -0 -0 -0 -0 -0 -0 0 0 0 0 0 0 0 0 0 0 0 0
-0 -0 0 0 0 0 0 -0 0 -0 0 0 0 -0 0 0 -0 -0 -0 -0 0 -0 0 -0 -0 -0 -0 -0 -0 -0 -0 -0 0 0 0 0 0 0 0 0 0 0 0
-0 0 0 0 0 0 0 0 -0 -0 -0 -0 -0 -0 0 -0 -0 -0 -0 -0 -0 0 -0 -0 -0 -0 -0 -0 -0 -0 -0 -0 -0 0 0 0 0 -0 -0 0 0 0 0
-0 -0 0 0 0 0 0 0 -0 -0 -0 -0 -0 -0 -0 -0 0 0 0 -0 -0 -0 -0 -0 -0 -0 -0 -0 -0 -0 -0 -0 -0 -0 0 0 -0 -0 0 0 0 0 0
-0 -0 0 0 0 0 0 0 0 0 -0 -0 -0 -0 -0 -0 -0 -0 -0 -0 0 0 0 0 -0 -0 -0 -0 -0 -0 -0 -0 -0 -0 -0 0 0 -0 -0 -0 0 0 0
0 -0 -0 -0 0 0 0 0 0 0 0 0 0 -0 -0 -0 -0 -0 -0 -0 0 0 0 0 0 0 -0 -0 0 0 -0 -0 -0 -0 -0 -0 0 -0 0 0 0 0 0
0 0 0 -0 -0 -0 0 0 -0 -0 0 -0 0 -0 -0 0 0 -0 -0 0 0 0 0 0 0 0 0 0 -0 -0 -0 -0 -0 0 0 -0 -0 -0 -0 0 0 0 0
-0 0 0 -0 -0 0 -0 0 -0 -0 0 0 0 -0 0 -0 0 0 0 0 0 0 0 0 0 0 0 0 0 0 -0 -0 -0 -0 -0 -0 -0 -0 -0 0 0 0 0
-0 -0 0 -0 0 0 0 0 0 -0 0 -0 -0 0 0 0 0 0 0 0 0 0 0 0 0 0 0 0 0 0 0 -0 -0 -0 -0 0 -0 -0 -0 -0 0 0 0
-0 -0 0 -0 0 0 0 0 0 0 0 0 0 0 0 -0 -0 0 0 0 0 0 0 0 0 0 0 0 0 0 0 0 0 0 0 0 0 0 -0 -0 -0 0 0
0 0 0 0 0 0 0 0 0 0 0 0 0 0 0 0 0 0 0 0 0 0 0 0 0 0 0 0 0 0 0 0 0 0 0 0 0 0 0 -0 -0 -0 -0
0 0 0 0 0 0 0 0 0 0 0 0 0 0 0 0 0 0 0 0 0 0 0 0 0 0 0 0 0 0 0 0 0 0 0 0 0 0 0 0 0 0 0
0 0 0 0 0 0 0 0 0 0 0 0 0 0 0 0 0 0 0 0 0 0 0 0 0 0 0 0 0 0 0 0 0 0 0 0 0 0 0 0 0 0 0
0 0 0 0 0 0 0 0 0 0 0 0 0 0 0 0 0 0 0 0 0 0 0 0 0 0 0 0 0 0 0 0 0 0 0 0 0 0 0 0 0 0 0
-0 0 0 0 0 0 0 0 0 0 0 0 0 0 0 0 0 0 0 0 0 0 0 0 0 0 0 0 0 0 0 0 0 0 0 0 0 0 0 0 0 0 0
0 0 0 0 0 0 0 0 0 0 0 0 0 0 0 0 0 0 0 0 0 0 0 0 0 0 0 0 0 0 0 0 0 0 0 0 0 0 0 0 0 0 0
-0 0 0 0 0 0 0 0 0 0 0 0 0 0 0 0 0 0 0 0 0 0 0 0 0 0 0 0 0 0 0 0 0 0 0 0 0 0 0 0 0 0 0
-0 -0 0 0 0 0 0 0 0 0 0 0 0 0 0 0 0 0 0 0 0 0 0 0 0 0 0 0 0 0 0 0 0 0 0 0 0 0 0 0 0 0 0
-0 0 0 0 0 0 0 0 0 0 0 0 0 0 0 0 0 0 0 0 0 0 0 0 0 0 0 0 0 0 0 0 0 0 0 0 0 0 0 0 0 0 0
0 0 0 0 0 0 0 0 0 0 0 0 0 0 0 0 0 0 0 0 0 0 0 0 0 0 0 0 0 0 0 0 0 0 0 0 0 0 0 0 0 0 0
0 0 0 0 0 0 0 0 0 0 0 0 0 0 0 0 0 0 0 0 0 0 0 0 0 0 0 0 0 0 0 0 0 0 0 0 0 0 0 0 0 0 0
1 0 0 0 0 0 0 0 0 0 0 0 0 0 0 0 0 0 0 0 0 0 0 0 0 0 0 0 0 0 0 0 0 0 0 0 0 0 0 0 0 0 0
1 0 0 0 0 0 0 0 0 0 0 0 0 0 0 0 0 0 0 0 0 0 0 0 0 0 0 0 0 0 0 0 0 0 0 0 0 0 0 0 0 0 0
0 0 0 0 0 0 0 0 0 0 0 0 0 0 0 0 0 0 0 0 0 0 0 0 0 0 0 0 0 0 0 0 0 0 0 0 0 0 0 0 0 0 0
Wind_Speed_500mb
6 7 9 12 14 15 15 15 19 16 12 20 15 19 22 24 20 17 17 19 27 28 25 27 35 38 35 27 17 25 25 28 29 27 23 23 26 27 24 26 27 24 24
8 13 14 18 20 24 23 20 21 18 14 16 17 24 22 24 24 12 15 21 24 23 19 24 31 29 32 32 31 21 23 29 32 33 30 28 26 29 28 26 27 27 25
12 18 20 24 24 25 25 31 32 27 23 19 18 19 23 24 24 21 21 18 24 23 23 23 26 26 28 32 31 34 29 29 33 34 36 34 33 31 33 31 30 29 27
11 13 18 22 25 28 30 31 26 20 25 21 16 22 28 29 23 20 16 13 14 17 14 16 20 26 26 31 33 32 35 25 37 41 39 40 37 37 35 35 33 31 31
11 8 13 18 24 27 23 19 19 19 19 17 14 17 20 21 21 20 18 14 7 10 6 8 10 17 24 26 29 34 35 37 34 45 45 43 43 42 39 37 35 35 32
16 15 13 20 19 17 4 11 20 22 19 15 14 15 18 19 19 18 14 11 7 7 6 10 8 4 13 22 25 30 35 35 35 42 52 51 47 48 48 43 39 35 32
19 19 15 16 15 14 8 12 16 14 11 11 12 12 13 11 11 12 14 11 2 9 8 7 6 4 1 5 10 15 24 35 37 36 48 66 56 51 52 52 49 44 38
15 18 14 14 9 10 8 12 11 9 8 6 5 4 5 8 9 9 4 5 8 13 12 6 6 1 5 4 8 8 13 17 23 30 41 30 65 58 55 56 56 53 47
16 14 9 10 3 6 6 6 5 3 4 4 7 4 3 2 11 11 7 9 9 10 10 7 4 2 4 8 12 8 7 9 14 18 30 44 54 65 60 58 57 57 55
15 9 7 7 2 5 4 1 1 4 5 6 7 8 6 5 4 8 10 11 9 6 6 3 3 4 5 6 5 7 9 10 11 14 19 26 55 66 69 61 58 57 58
10 5 7 4 4 4 1 3 4 2 3 5 7 7 7 7 9 7 12 14 13 8 7 6 4 5 1 3 4 9 14 15 15 14 13 17 14 51 60 75 69 62 59
12 6 3 4 7 3 2 2 2 5 6 6 8 12 12 11 9 9 12 21 21 15 15 10 7 5 6 7 13 18 20 19 18 16 14 12 12 28 54 54 72 77 66
8 5 4 6 3 6 6 7 7 9 10 12 12 10 9 11 12 16 17 25 25 23 19 15 12 10 7 7 17 22 25 23 18 16 16 13 13 19 29 43 55 67 77
5 4 4 3 6 8 9 11 8 6 8 10 17 15 15 14 15 14 17 24 26 28 23 19 18 11 9 11 20 26 27 23 19 14 13 14 13 13 21 33 52 66 66
13 3 6 9 9 14 14 13 13 10 8 9 12 17 19 20 18 14 15 23 33 35 35 28 22 16 19 19 23 26 23 17 14 15 13 11 12 11 11 17 30 38 39
24 19 13 16 11 17 19 19 19 18 14 12 12 13 16 18 18 14 12 17 27 36 37 32 25 16 15 14 19 21 20 18 15 11 11 11 10 11 12 15 18 24 32
32 27 23 21 13 37 28 25 27 25 20 14 14 18 18 17 14 15 14 14 18 26 33 33 29 19 12 10 15 18 24 19 14 14 15 9 9 12 14 15 17 19 24
42 35 34 24 15 41 37 28 32 29 21 21 15 17 15 16 15 12 11 9 10 13 20 26 26 21 15 11 14 23 26 19 13 14 15 11 16 20 17 17 15 12 14
56 47 51 36 5 16 30 45 32 32 31 24 14 16 15 13 11 9 8 6 4 10 15 17 16 16 8 8 17 24 20 17 13 8 7 9 11 15 18 18 17 15 13
66 64 60 55 49 36 31 37 39 32 38 25 17 11 13 16 10 10 9 8 7 8 11 12 10 13 11 14 19 15 16 14 11 8 11 15 19 17 19 18 12 13 14
69 65 66 65 62 61 55 37 41 28 36 28 23 19 21 17 14 13 10 10 12 13 14 13 11 12 10 10 14 15 14 11 15 11 10 13 17 23 23 12 10 12 14
69 69 70 67 68 62 50 49 43 37 36 27 22 20 21 18 13 14 12 9 11 13 12 12 10 6 2 9 12 10 15 17 20 17 21 18 17 16 11 10 12 15 15
62 67 71 74 63 36 56 47 43 42 37 29 24 20 24 23 15 14 12 13 10 6 9 9 5 1 5 13 18 19 22 27 29 28 28 29 24 24 18 20 18 17 18
61 61 65 63 67 55 44 37 44 49 41 30 24 21 21 22 16 13 13 15 13 12 13 9 7 11 16 17 18 22 28 32 34 35 39 37 34 31 27 27 29 31 38
62 57 58 49 41 40 35 40 48 51 44 30 28 24 24 18 13 16 14 11 11 8 4 8 14 18 19 16 17 16 31 32 35 33 33 30 25 30 32 32 35 37 35
60 56 57 48 31 25 36 38 56 51 49 35 32 29 23 12 13 12 12 11 8 5 2 9 12 8 6 14 20 28 31 32 34 36 28 24 24 31 37 38 22 31 50
Wind_Direction_500mb
215 255 268 299 282 281 263 253 247 246 240 238 238 238 237 240 244 256 229 239 228 230 253 230 223 220 227 212 216 225 216 209 203 195 190 185 185 185 186 183 177 179 171
266 286 282 293 283 291 278 269 256 253 234 246 255 238 238 252 261 261 234 221 223 233 247 229 223 231 227 226 228 227 226 217 216 216 211 202 193 194 193 196 189 190 184
318 298 285 290 295 290 286 279 275 264 237 247 259 249 247 261 259 260 263 260 225 232 243 237 231 231 230 224 228 232 233 224 221 222 222 217 207 202 203 203 200 196 194
308 287 286 298 304 299 290 272 261 247 216 237 260 246 253 259 254 262 258 234 235 219 206 234 243 239 236 229 229 233 240 236 226 222 222 221 217 211 208 206 208 206 202
278 302 323 317 314 302 282 256 229 206 216 228 248 242 245 252 262 264 261 262 240 231 224 244 255 242 234 229 231 235 243 248 232 222 220 219 216 215 210 210 208 209 211
279 297 308 321 321 338 310 199 180 194 208 225 234 232 229 238 246 259 259 247 266 191 133 97 64 241 237 239 243 239 246 251 243 229 222 222 216 214 214 213 206 206 209
270 296 305 318 316 3 63 134 155 172 192 225 246 227 226 222 213 222 220 237 281 167 145 156 124 114 286 258 248 249 245 247 251 242 246 218 219 216 216 215 215 213 214
271 273 305 329 324 23 88 122 141 163 177 203 220 229 223 202 186 174 187 162 135 156 137 186 210 154 58 58 342 280 266 265 258 256 256 241 219 219 218 218 219 223 224
246 268 304 338 13 65 82 95 112 168 205 233 208 246 294 233 182 192 176 157 167 184 181 192 218 157 345 342 327 327 302 281 277 270 259 240 225 220 221 222 223 223 226
244 272 316 326 235 97 83 53 283 250 252 257 219 223 231 213 218 184 184 183 192 208 197 226 284 250 286 322 344 343 336 327 309 295 274 248 231 220 219 224 225 228 229
220 234 337 330 194 222 36 24 0 313 266 249 233 200 189 189 194 190 195 204 218 198 206 218 254 290 58 339 6 319 304 293 298 304 303 283 248 222 223 223 224 229 231
213 239 353 8 207 211 263 211 227 239 216 207 214 240 249 261 260 235 232 203 205 196 198 206 205 233 287 346 347 341 334 323 307 297 294 283 253 233 230 226 228 228 231
252 255 309 6 279 261 266 275 264 254 233 228 226 226 253 264 262 261 255 213 198 203 196 200 203 233 251 324 341 341 337 326 321 308 298 293 259 241 232 235 231 231 230
217 228 268 267 315 292 277 278 254 237 241 256 249 253 267 276 281 262 254 236 207 194 200 211 218 239 261 319 329 327 325 321 313 309 307 290 282 261 241 234 237 238 221
228 252 228 290 330 307 279 276 258 247 253 266 256 257 270 281 282 264 238 242 234 215 212 221 221 214 269 302 318 327 320 316 311 308 309 311 298 284 277 259 253 255 238
236 237 223 250 275 287 280 265 253 256 258 257 255 270 275 280 294 287 253 218 233 242 230 227 224 209 250 296 326 340 338 330 316 307 314 322 324 308 296 285 271 266 265
232 240 223 233 296 304 269 257 254 244 250 248 269 277 280 277 278 291 283 264 243 235 245 225 220 216 241 293 327 337 338 327 322 301 295 312 304 305 297 283 279 275 271
230 231 226 231 304 321 266 257 255 251 258 259 277 262 261 262 269 284 296 287 258 236 228 211 198 213 241 294 325 334 331 322 309 310 309 294 312 315 309 294 290 285 284
233 230 231 216 230 298 302 262 248 254 255 262 270 263 248 252 258 262 273 291 266 220 214 222 225 231 251 303 326 332 331 324 321 315 266 297 322 321 319 310 305 282 286
234 233 234 230 233 254 274 277 243 248 242 244 245 246 282 246 233 247 253 263 259 221 219 229 236 241 266 313 328 337 336 336 310 306 283 291 303 316 325 329 303 283 279
238 235 234 232 241 248 264 275 244 233 235 247 231 234 235 223 229 229 229 247 254 256 252 232 230 232 283 322 334 333 343 4 12 348 336 344 318 289 298 327 305 293 286
238 236 236 237 244 248 258 275 243 225 220 228 236 223 220 212 211 223 251 265 276 275 253 240 242 247 257 336 337 338 336 334 339 345 337 349 345 328 317 313 306 293 279
238 239 237 236 243 256 259 269 222 212 219 218 216 223 218 212 216 219 255 281 269 218 165 142 119 335 317 321 321 328 322 314 309 306 304 307 317 326 313 311 311 293 295
241 241 243 242 237 243 258 243 208 209 213 207 224 231 218 217 233 225 260 263 230 211 201 221 266 261 275 300 308 310 317 318 308 303 297 285 293 298 305 305 301 304 309
241 247 247 244 248 251 237 203 201 207 208 214 215 225 205 214 219 235 254 231 207 186 208 268 276 281 288 298 306 309 327 325 317 310 309 305 293 289 296 300 294 297 299
240 248 248 231 226 252 216 195 193 208 205 215 218 205 201 207 216 222 211 197 185 169 272 301 305 303 280 295 296 303 312 319 323 312 304 291 288 296 305 301 285 282 295
Wind_Speed_850mb
6 7 9 12 14 15 15 15 19 16 12 20 15 19 22 24 20 17 17 19 27 28 25 27 35 38 35 27 17 25 25 28 29 27 23 23 26 27 24 26 27 24 24
8 13 14 18 20 24 23 20 21 18 14 16 17 24 22 24 24 12 15 21 24 23 19 24 31 29 32 32 31 21 23 29 32 33 30 28 26 29 28 26 27 27 25
12 18 20 24 24 25 25 31 32 27 23 19 18 19 23 24 24 21 21 18 24 23 23 23 26 26 28 32 31 34 29 29 33 34 36 34 33 31 33 31 30 29 27
11 13 18 22 25 28 30 31 26 20 25 21 16 22 28 29 23 20 16 13 14 17 14 16 20 26 26 31 33 32 35 25 37 41 39 40 37 37 35 35 33 31 31
11 8 13 18 24 27 23 19 19 19 19 17 14 17 20 21 21 20 18 14 7 10 6 8 10 17 24 26 29 34 35 37 34 45 45 43 43 42 39 37 35 35 32
16 15 13 20 19 17 4 11 20 22 19 15 14 15 18 19 19 18 14 11 7 7 6 10 8 4 13 22 25 30 35 35 35 42 52 51 47 48 48 43 39 35 32
19 19 15 16 15 14 8 12 16 14 11 11 12 12 13 11 11 12 14 11 2 9 8 7 6 4 1 5 10 15 24 35 37 36 48 66 56 51 52 52 49 44 38
15 18 14 14 9 10 8 12 11 9 8 6 5 4 5 8 9 9 4 5 8 13 12 6 6 1 5 4 8 8 13 17 23 30 41 30 65 58 55 56 56 53 47
16 14 9 10 3 6 6 6 5 3 4 4 7 4 3 2 11 11 7 9 9 10 10 7 4 2 4 8 12 8 7 9 14 18 30 44 54 65 60 58 57 57 55
15 9 7 7 2 5 4 1 1 4 5 6 7 8 6 5 4 8 10 11 9 6 6 3 3 4 5 6 5 7 9 10 11 14 19 26 55 66 69 61 58 57 58
10 5 7 4 4 4 1 3 4 2 3 5 7 7 7 7 9 7 12 14 13 8 7 6 4 5 1 3 4 9 14 15 15 14 13 17 14 51 60 75 69 62 59
12 6 3 4 7 3 2 2 2 5 6 6 8 12 12 11 9 9 12 21 21 15 15 10 7 5 6 7 13 18 20 19 18 16 14 12 12 28 54 54 72 77 66
8 5 4 6 3 6 6 7 7 9 10 12 12 10 9 11 12 16 17 25 25 23 19 15 12 10 7 7 17 22 25 23 18 16 16 13 13 19 29 43 55 67 77
5 4 4 3 6 8 9 11 8 6 8 10 17 15 15 14 15 14 17 24 26 28 23 19 18 11 9 11 20 26 27 23 19 14 13 14 13 13 21 33 52 66 66
13 3 6 9 9 14 14 13 13 10 8 9 12 17 19 20 18 14 15 23 33 35 35 28 22 16 19 19 23 26 23 17 14 15 13 11 12 11 11 17 30 38 39
24 19 13 16 11 17 19 19 19 18 14 12 12 13 16 18 18 14 12 17 27 36 37 32 25 16 15 14 19 21 20 18 15 11 11 11 10 11 12 15 18 24 32
32 27 23 21 13 37 28 25 27 25 20 14 14 18 18 17 14 15 14 14 18 26 33 33 29 19 12 10 15 18 24 19 14 14 15 9 9 12 14 15 17 19 24
42 35 34 24 15 41 37 28 32 29 21 21 15 17 15 16 15 12 11 9 10 13 20 26 26 21 15 11 14 23 26 19 13 14 15 11 16 20 17 17 15 12 14
56 47 51 36 5 16 30 45 32 32 31 24 14 16 15 13 11 9 8 6 4 10 15 17 16 16 8 8 17 24 20 17 13 8 7 9 11 15 18 18 17 15 13
66 64 60 55 49 36 31 37 39 32 38 25 17 11 13 16 10 10 9 8 7 8 11 12 10 13 11 14 19 15 16 14 11 8 11 15 19 17 19 18 12 13 14
69 65 66 65 62 61 55 37 41 28 36 28 23 19 21 17 14 13 10 10 12 13 14 13 11 12 10 10 14 15 14 11 15 11 10 13 17 23 23 12 10 12 14
69 69 70 67 68 62 50 49 43 37 36 27 22 20 21 18 13 14 12 9 11 13 12 12 10 6 2 9 12 10 15 17 20 17 21 18 17 16 11 10 12 15 15
62 67 71 74 63 36 56 47 43 42 37 29 24 20 24 23 15 14 12 13 10 6 9 9 5 1 5 13 18 19 22 27 29 28 28 29 24 24 18 20 18 17 18
61 61 65 63 67 55 44 37 44 49 41 30 24 21 21 22 16 13 13 15 13 12 13 9 7 11 16 17 18 22 28 32 34 35 39 37 34 31 27 27 29 31 38
62 57 58 49 41 40 35 40 48 51 44 30 28 24 24 18 13 16 14 11 11 8 4 8 14 18 19 16 17 16 31 32 35 33 33 30 25 30 32 32 35 37 35
60 56 57 48 31 25 36 38 56 51 49 35 32 29 23 12 13 12 12 11 8 5 2 9 12 8 6 14 20 28 31 32 34 36 28 24 24 31 37 38 22 31 50
Wind_Direction_850mb
215 255 268 299 282 281 263 253 247 246 240 238 238 238 237 240 244 256 229 239 228 230 253 230 223 220 227 212 216 225 216 209 203 195 190 185 185 185 186 183 177 179 171
266 286 282 293 283 291 278 269 256 253 234 246 255 238 238 252 261 261 234 221 223 233 247 229 223 231 227 226 228 227 226 217 216 216 211 202 193 194 193 196 189 190 184
318 298 285 290 295 290 286 279 275 264 237 247 259 249 247 261 259 260 263 260 225 232 243 237 231 231 230 224 228 232 233 224 221 222 222 217 207 202 203 203 200 196 194
308 287 286 298 304 299 290 272 261 247 216 237 260 246 253 259 254 262 258 234 235 219 206 234 243 239 236 229 229 233 240 236 226 222 222 221 217 211 208 206 208 206 202
278 302 323 317 314 302 282 256 229 206 216 228 248 242 245 252 262 264 261 262 240 231 224 244 255 242 234 229 231 235 243 248 232 222 220 219 216 215 210 210 208 209 211
279 297 308 321 321 338 310 199 180 194 208 225 234 232 229 238 246 259 259 247 266 191 133 97 64 241 237 239 243 239 246 251 243 229 222 222 216 214 214 213 206 206 209
270 296 305 318 316 3 63 134 155 172 192 225 246 227 226 222 213 222 220 237 281 167 145 156 124 114 286 258 248 249 245 247 251 242 246 218 219 216 216 215 215 213 214
271 273 305 329 324 23 88 122 141 163 177 203 220 229 223 202 186 174 187 162 135 156 137 186 210 154 58 58 342 280 266 265 258 256 256 241 219 219 218 218 219 223 224
246 268 304 338 13 65 82 95 112 168 205 233 208 246 294 233 182 192 176 157 167 184 181 192 218 157 345 342 327 327 302 281 277 270 259 240 225 220 221 222 223 223 226
244 272 316 326 235 97 83 53 283 250 252 257 219 223 231 213 218 184 184 183 192 208 197 226 284 250 286 322 344 343 336 327 309 295 274 248 231 220 219 224 225 228 229
220 234 337 330 194 222 36 24 0 313 266 249 233 200 189 189 194 190 195 204 218 198 206 218 254 290 58 339 6 319 304 293 298 304 303 283 248 222 223 223 224 229 231
213 239 353 8 207 211 263 211 227 239 216 207 214 240 249 261 260 235 232 203 205 196 198 206 205 233 287 346 347 341 334 323 307 297 294 283 253 233 230 226 228 228 231
252 255 309 6 279 261 266 275 264 254 233 228 226 226 253 264 262 261 255 213 198 203 196 200 203 233 251 324 341 341 337 326 321 308 298 293 259 241 232 235 231 231 230
217 228 268 267 315 292 277 278 254 237 241 256 249 253 267 276 281 262 254 236 207 194 200 211 218 239 261 319 329 327 325 321 313 309 307 290 282 261 241 234 237 238 221
228 252 228 290 330 307 279 276 258 247 253 266 256 257 270 281 282 264 238 242 234 215 212 221 221 214 269 302 318 327 320 316 311 308 309 311 298 284 277 259 253 255 238
236 237 223 250 275 287 280 265 253 256 258 257 255 270 275 280 294 287 253 218 233 242 230 227 224 209 250 296 326 340 338 330 316 307 314 322 324 308 296 285 271 266 265
232 240 223 233 296 304 269 257 254 244 250 248 269 277 280 277 278 291 283 264 243 235 245 225 220 216 241 293 327 337 338 327 322 301 295 312 304 305 297 283 279 275 271
230 231 226 231 304 321 266 257 255 251 258 259 277 262 261 262 269 284 296 287 258 236 228 211 198 213 241 294 325 334 331 322 309 310 309 294 312 315 309 294 290 285 284
233 230 231 216 230 298 302 262 248 254 255 262 270 263 248 252 258 262 273 291 266 220 214 222 225 231 251 303 326 332 331 324 321 315 266 297 322 321 319 310 305 282 286
234 233 234 230 233 254 274 277 243 248 242 244 245 246 282 246 233 247 253 263 259 221 219 229 236 241 266 313 328 337 336 336 310 306 283 291 303 316 325 329 303 283 279
238 235 234 232 241 248 264 275 244 233 235 247 231 234 235 223 229 229 229 247 254 256 252 232 230 232 283 322 334 333 343 4 12 348 336 344 318 289 298 327 305 293 286
238 236 236 237 244 248 258 275 243 225 220 228 236 223 220 212 211 223 251 265 276 275 253 240 242 247 257 336 337 338 336 334 339 345 337 349 345 328 317 313 306 293 279
238 239 237 236 243 256 259 269 222 212 219 218 216 223 218 212 216 219 255 281 269 218 165 142 119 335 317 321 321 328 322 314 309 306 304 307 317 326 313 311 311 293 295
241 241 243 242 237 243 258 243 208 209 213 207 224 231 218 217 233 225 260 263 230 211 201 221 266 261 275 300 308 310 317 318 308 303 297 285 293 298 305 305 301 304 309
241 247 247 244 248 251 237 203 201 207 208 214 215 225 205 214 219 235 254 231 207 186 208 268 276 281 288 298 306 309 327 325 317 310 309 305 293 289 296 300 294 297 299
240 248 248 231 226 252 216 195 193 208 205 215 218 205 201 207 216 222 211 197 185 169 272 301 305 303 280 295 296 303 312 319 323 312 304 291 288 296 305 301 285 282 295